This is the latest recevied weather packets stored in our database for station/object W5GMO. If no packets are shown the sender has not sent any weather packets the latest 10 day(s).
| Time | Temp. | Humidity | Pressure | Rain* | Wind** | Luminosity | Snow |
|---|---|---|---|---|---|---|---|
| 1788143311 | 73° F | 1% | 764.9 mmHg | 0 in | - | 0 W/m² | - |
| 1788143010 | 73° F | 1% | 764.8 mmHg | 0 in | - | 0 W/m² | - |
| 1788142705 | 73° F | 1% | 764.8 mmHg | 0 in | - | 0 W/m² | - |
| 1788142405 | 73° F | 1% | 764.8 mmHg | 0 in | - | 0 W/m² | - |
| 1788142101 | 73° F | 1% | 764.8 mmHg | 0 in | - | 0 W/m² | - |
| 1788141801 | 74° F | 1% | 764.8 mmHg | 0 in | - | 0 W/m² | - |
| 1788141496 | 74° F | 1% | 764.8 mmHg | 0 in | - | 0 W/m² | - |
| 1788141192 | 74° F | 1% | 764.7 mmHg | 0 in | - | 0 W/m² | - |
| 1788140891 | 74° F | 1% | 764.9 mmHg | 0 in | - | 0 W/m² | - |
| 1788140586 | 74° F | 1% | 764.9 mmHg | 0 in | - | 0 W/m² | - |
| 1788140283 | 74° F | 1% | 764.8 mmHg | 0 in | - | 0 W/m² | - |
| 1788139982 | 74° F | 1% | 764.8 mmHg | 0 in | - | 0 W/m² | - |
| 1788139677 | 74° F | 1% | 764.8 mmHg | 0 in | - | 0 W/m² | - |
| 1788139372 | 74° F | 1% | 764.8 mmHg | 0 in | - | 0 W/m² | - |
| 1788139071 | 74° F | 1% | 764.7 mmHg | 0 in | - | 0 W/m² | - |
| 1788138767 | 74° F | 1% | 764.7 mmHg | 0 in | - | 0 W/m² | - |
| 1788138463 | 74° F | 1% | 764.4 mmHg | 0.05 in | - | 0 W/m² | - |
| 1788138162 | 74° F | 1% | 764.4 mmHg | 0.12 in | - | 0 W/m² | - |
| 1788137859 | 74° F | 1% | 764.5 mmHg | 0.12 in | - | 0 W/m² | - |
| 1788137554 | 73° F | 1% | 764.5 mmHg | 0.05 in | - | 0 W/m² | - |
| 1788137249 | 73° F | 1% | 764.5 mmHg | 0 in | - | 0 W/m² | - |
| 1788136945 | 73° F | 1% | 764.6 mmHg | 0.07 in | - | 0 W/m² | - |
| 1788136640 | 72° F | 1% | 764.8 mmHg | 0.12 in | - | 0 W/m² | - |
| 1788136337 | 72° F | 1% | 764.8 mmHg | 0.24 in | - | 0 W/m² | - |
| 1788136035 | 73° F | 1% | 765 mmHg | 0.42 in | - | 0 W/m² | - |
* Rain latest hour (hover to see other rain measurements)
** Current wind speed in m/s (hover to see current wind gust speed)